Location: *
(50.9167°S, 179.4000°W)
Time: 04:05:53
(UTC+00:00)

ATLAS 2AS CENTAUR R/B - Pass Details

Date: 24 June 2024
Orbit: 1019 x 1192 km, 63.7° (Epoch: 21 July)

Event Time Altitude Azimuth Distance (km) Brightness Sun altitude
Exits shadow 18:21:42 15° 221° (SW) 2,706 4.3 -14.7°
Maximum altitude 18:27:58 63° 141° (SE) 1,293 3.2 -13.8°
Drops below altitude 10° 18:35:24 10° 60° (ENE) 3,116 6.6 -12.7°
Sets 18:38:12 0° 56° (NE) 4,085 7.6 -12.3°
